Stündliche Wetter Bolshie Lyzki

Heute, 27 November, Freitag

Zeit Temperatur Niederschläge Wind Luftdruck Luftfeuchtigkeit
00:00 -2°C° 0 mm 4 m/S 742 mmHg 88%
01:00 -2°C° 0 mm 4 m/S 742 mmHg 89%
02:00 -2°C° 0 mm 4 m/S 742 mmHg 90%
03:00 -2°C° 0 mm 4 m/S 741 mmHg 90%
04:00 -2°C° 0 mm 4 m/S 741 mmHg 90%
05:00 -2°C° 0 mm 5 m/S 741 mmHg 90%
06:00 -2°C° 0 mm 5 m/S 740 mmHg 90%
07:00 -2°C° 0 mm 5 m/S 740 mmHg 90%
08:00 -2°C° 0 mm 5 m/S 740 mmHg 89%
09:00 -2°C° 0.1 mm 5 m/S 740 mmHg 91%
10:00 -2°C° 0.1 mm 4 m/S 739 mmHg 93%
11:00 -2°C° 0.1 mm 4 m/S 739 mmHg 94%
12:00 -1°C° 0.3 mm 5 m/S 739 mmHg 95%
13:00 -1°C° 0.3 mm 5 m/S 739 mmHg 96%
14:00 0°C° 0.3 mm 5 m/S 739 mmHg 96%
15:00 0°C° 0.1 mm 5 m/S 738 mmHg 95%
16:00 0°C° 0.1 mm 5 m/S 738 mmHg 94%
17:00 +1°C° 0.1 mm 5 m/S 738 mmHg 93%
18:00 +1°C° 0.2 mm 5 m/S 739 mmHg 95%
19:00 +1°C° 0.2 mm 5 m/S 739 mmHg 96%
20:00 +1°C° 0.2 mm 5 m/S 739 mmHg 97%
21:00 0°C° 0.1 mm 5 m/S 739 mmHg 95%
22:00 0°C° 0.1 mm 4 m/S 740 mmHg 93%
23:00 0°C° 0.1 mm 4 m/S 740 mmHg 92%

Morgen, 28 November, Samstag

Zeit Temperatur Niederschläge Wind Luftdruck Luftfeuchtigkeit
00:00 -1°C° 0 mm 4 m/S 740 mmHg 91%
01:00 -2°C° 0 mm 4 m/S 741 mmHg 91%
02:00 -2°C° 0 mm 3 m/S 741 mmHg 91%
03:00 -2°C° 0 mm 3 m/S 742 mmHg 91%
04:00 -2°C° 0 mm 2 m/S 742 mmHg 92%
05:00 -3°C° 0 mm 2 m/S 742 mmHg 93%
06:00 -2°C° 0 mm 2 m/S 743 mmHg 93%
07:00 -2°C° 0 mm 2 m/S 743 mmHg 93%
08:00 -2°C° 0 mm 2 m/S 744 mmHg 93%
09:00 -1°C° 0 mm 2 m/S 744 mmHg 89%
10:00 +1°C° 0 mm 2 m/S 745 mmHg 85%
11:00 +2°C° 0 mm 2 m/S 745 mmHg 81%
12:00 +2°C° 0 mm 2 m/S 746 mmHg 81%
13:00 +2°C° 0 mm 2 m/S 746 mmHg 82%
14:00 +2°C° 0 mm 2 m/S 746 mmHg 82%
15:00 +1°C° 0 mm 2 m/S 747 mmHg 86%
16:00 +1°C° 0 mm 2 m/S 747 mmHg 91%
17:00 -1°C° 0 mm 3 m/S 747 mmHg 95%
18:00 -1°C° 0 mm 3 m/S 747 mmHg 95%
19:00 -1°C° 0 mm 3 m/S 748 mmHg 96%
20:00 -1°C° 0 mm 2 m/S 748 mmHg 96%
21:00 -1°C° 0 mm 3 m/S 748 mmHg 96%
22:00 -1°C° 0 mm 3 m/S 748 mmHg 95%
23:00 -1°C° 0 mm 3 m/S 748 mmHg 94%

übermorgen, 29 November, Sonntag

Zeit Temperatur Niederschläge Wind Luftdruck Luftfeuchtigkeit
00:00 -1°C° 0.1 mm 3 m/S 748 mmHg 94%
01:00 -1°C° 0.1 mm 3 m/S 749 mmHg 94%
02:00 -2°C° 0.1 mm 4 m/S 749 mmHg 94%
03:00 -2°C° 0 mm 4 m/S 748 mmHg 93%
04:00 -3°C° 0 mm 4 m/S 748 mmHg 93%
05:00 -3°C° 0 mm 4 m/S 747 mmHg 93%
06:00 -2°C° 0 mm 4 m/S 747 mmHg 93%
07:00 -2°C° 0 mm 4 m/S 747 mmHg 94%
08:00 -2°C° 0 mm 4 m/S 747 mmHg 94%
09:00 -1°C° 0.5 mm 4 m/S 747 mmHg 95%
10:00 -1°C° 0.5 mm 4 m/S 746 mmHg 96%
11:00 0°C° 0.5 mm 4 m/S 746 mmHg 97%
12:00 0°C° 1.1 mm 5 m/S 746 mmHg 97%
13:00 +1°C° 1.1 mm 6 m/S 745 mmHg 96%
14:00 0°C° 1.1 mm 7 m/S 745 mmHg 95%
15:00 0°C° 0.8 mm 7 m/S 745 mmHg 96%
16:00 0°C° 0.8 mm 7 m/S 745 mmHg 96%
17:00 -1°C° 0.8 mm 7 m/S 745 mmHg 96%
18:00 +1°C° 0.5 mm 6 m/S 745 mmHg 96%
19:00 +1°C° 0.5 mm 5 m/S 746 mmHg 97%
20:00 +1°C° 0.5 mm 5 m/S 746 mmHg 97%
21:00 +1°C° 0.5 mm 4 m/S 747 mmHg 97%
22:00 0°C° 0.5 mm 4 m/S 747 mmHg 97%
23:00 +1°C° 0.5 mm 3 m/S 747 mmHg 97%

30 November, Montag

Zeit Temperatur Niederschläge Wind Luftdruck Luftfeuchtigkeit
00:00 +1°C° 0.5 mm 3 m/S 747 mmHg 97%
01:00 +1°C° 0.5 mm 3 m/S 748 mmHg 97%
02:00 0°C° 0.5 mm 3 m/S 748 mmHg 96%
03:00 +1°C° 0 mm 2 m/S 748 mmHg 95%
04:00 -1°C° 0 mm 2 m/S 748 mmHg 94%
05:00 +1°C° 0 mm 1 m/S 748 mmHg 93%
06:00 +1°C° 0 mm 1 m/S 749 mmHg 93%
07:00 +1°C° 0 mm 1 m/S 749 mmHg 93%
08:00 +1°C° 0 mm 1 m/S 750 mmHg 93%
09:00 +1°C° 0 mm 1 m/S 750 mmHg 91%
10:00 -1°C° 0 mm 2 m/S 750 mmHg 88%
11:00 +1°C° 0 mm 2 m/S 750 mmHg 86%
12:00 +1°C° 0 mm 2 m/S 750 mmHg 85%
13:00 +1°C° 0 mm 2 m/S 751 mmHg 84%
14:00 +1°C° 0 mm 2 m/S 751 mmHg 83%
15:00 -1°C° 0 mm 2 m/S 751 mmHg 85%
16:00 -1°C° 0 mm 2 m/S 751 mmHg 86%
17:00 -1°C° 0 mm 2 m/S 752 mmHg 88%
18:00 -2°C° 0 mm 2 m/S 752 mmHg 88%
19:00 -2°C° 0 mm 2 m/S 752 mmHg 88%
20:00 -2°C° 0 mm 2 m/S 753 mmHg 87%
21:00 -2°C° 0 mm 2 m/S 753 mmHg 88%
22:00 -2°C° 0 mm 2 m/S 753 mmHg 88%
23:00 -2°C° 0 mm 2 m/S 753 mmHg 89%

1 Dezember, Dienstag

Zeit Temperatur Niederschläge Wind Luftdruck Luftfeuchtigkeit
00:00 -2°C° 0 mm 2 m/S 754 mmHg 90%
01:00 -3°C° 0 mm 2 m/S 754 mmHg 90%
02:00 -1°C° 0 mm 1 m/S 754 mmHg 91%
03:00 -1°C° 0 mm 1 m/S 754 mmHg 91%
04:00 -1°C° 0 mm 1 m/S 754 mmHg 90%
05:00 -1°C° 0 mm 1 m/S 754 mmHg 90%
06:00 -1°C° 0 mm 1 m/S 754 mmHg 89%
07:00 -1°C° 0 mm 1 m/S 754 mmHg 89%
08:00 -1°C° 0 mm 1 m/S 754 mmHg 88%
09:00 -1°C° 0 mm 1 m/S 754 mmHg 85%
10:00 0°C° 0 mm 1 m/S 754 mmHg 81%
11:00 0°C° 0 mm 1 m/S 754 mmHg 78%
12:00 +1°C° 0 mm 1 m/S 754 mmHg 78%
13:00 +1°C° 0 mm 1 m/S 754 mmHg 77%
14:00 +1°C° 0 mm 1 m/S 754 mmHg 77%
15:00 0°C° 0 mm 1 m/S 754 mmHg 80%
16:00 0°C° 0 mm 1 m/S 753 mmHg 83%
17:00 0°C° 0 mm 1 m/S 753 mmHg 85%
18:00 0°C° 0 mm 1 m/S 753 mmHg 86%
19:00 0°C° 0 mm 1 m/S 753 mmHg 87%
20:00 0°C° 0 mm 1 m/S 753 mmHg 88%
21:00 0°C° 0.1 mm 1 m/S 753 mmHg 89%
22:00 -1°C° 0.1 mm 0 m/S 753 mmHg 90%
23:00 -1°C° 0.1 mm 0 m/S 753 mmHg 91%

2 Dezember, Mittwoch

Zeit Temperatur Niederschläge Wind Luftdruck Luftfeuchtigkeit
00:00 0°C° 0.2 mm 1 m/S 753 mmHg 93%
01:00 0°C° 0.2 mm 1 m/S 753 mmHg 94%
02:00 0°C° 0.2 mm 1 m/S 753 mmHg 96%
03:00 0°C° 0.1 mm 1 m/S 753 mmHg 96%
04:00 0°C° 0.1 mm 1 m/S 753 mmHg 97%
05:00 -2°C° 0.1 mm 2 m/S 753 mmHg 97%
06:00 -2°C° 0 mm 2 m/S 753 mmHg 96%
07:00 -2°C° 0 mm 2 m/S 753 mmHg 95%
08:00 -2°C° 0 mm 2 m/S 753 mmHg 94%
09:00 -2°C° 0 mm 2 m/S 753 mmHg 90%
10:00 -2°C° 0 mm 2 m/S 753 mmHg 87%
11:00 -2°C° 0 mm 2 m/S 753 mmHg 84%
12:00 -2°C° 0 mm 2 m/S 753 mmHg 83%
13:00 -2°C° 0 mm 2 m/S 753 mmHg 83%
14:00 -2°C° 0 mm 2 m/S 753 mmHg 82%
15:00 -2°C° 0 mm 2 m/S 753 mmHg 85%
16:00 -3°C° 0 mm 2 m/S 754 mmHg 87%
17:00 -3°C° 0 mm 2 m/S 754 mmHg 89%
18:00 -3°C° 0 mm 2 m/S 754 mmHg 88%
19:00 -4°C° 0 mm 2 m/S 754 mmHg 88%
20:00 -5°C° 0 mm 3 m/S 754 mmHg 87%
21:00 -5°C° 0 mm 3 m/S 755 mmHg 86%
22:00 -4°C° 0 mm 2 m/S 755 mmHg 85%
23:00 -4°C° 0 mm 2 m/S 755 mmHg 85%
Mehr zeigen

Wir brauchen deine Erlaubnis

Meteoprog und unser Service Anbieter werden persönliche Daten aufbewahren, so wie Cookies, Geräte Bezeichnung oder ähnliche Technologien von deinem Gerät und Prozess, so wie Persönliche Daten Inhalte und Werbungen, genauso wie social Media und den Verkehr zu analysieren.

  • Aufbewahrung und/oder Zugang zu deiner Geräte Informationen.

    Cookies, Geräte Bezeichnung oder andere Informationen, können aufbewahrt oder Zugang zu deinem Gerät erhalten, für den Grund, der oben angegeben wird.

  • Personalisierte Werbung und Inhalte, Messungen, Einblick in das Publikum und Produkt Entwicklung.

    Werbungen und Inhalte können personalisiert werden, basierend auf ein Profil. Mehr Daten können besser personalisierte Werbungen und Inhalte hinzufügen. Werbung und Inhalte können gezeigt und gemessen werden. Einblicke über das Publikum, welche die Werbung gesehen haben und den Inhalt, können abgeleitet werden. So wie Daten können genutzt werden, um es zu verbessern oder die Benutzer Erfahrung zu verbessern das System und die Software.

Wenn du “Ich stimme zu” klickst, erlaubst du uns, die Cookies zu benutzen die Geräte Bezeichnung, den Web oder ähnliche Technologien zu benutzen. Deine Settings, können in deinem Gerät bei deinem Browser geändert werden.

Für den bestimmten Zweck, berechtigten Interessen beruhen darauf, mehr als auf den Inhalt. Du kannst mehr darüber in unseren Privaten und Cookie Politik lesen.